Location: Unspecified
(0.0000°N, 0.0000°E)
Time: 09:16:43
(UTC+00:00)

Vanguard 2 - Pass Details

Date: 22 October 2021
Orbit: 554 x 2936 km, 32.9° (Epoch: 06 December)

Event Time Altitude Azimuth Distance (km) Brightness Sun altitude
Rises 18:19:34 0° 216° (SW) 5,751 12.8 -8.6°
Reaches altitude 10° 18:24:26 10° 202° (SSW) 5,094 12.2 -9.8°
Maximum altitude 18:36:01 24° 154° (SSE) 4,569 11.3 -12.6°
Drops below altitude 10° 18:48:53 10° 108° (ESE) 5,739 11.4 -15.8°
Enters shadow 18:48:57 10° 108° (ESE) 5,750 11.4 -15.8°
Sets 18:54:45 0° 95° (E) 6,624 - -17.2°
